[[{"header":{"parameterUnit":"m.s-1","parameterCategory":1,"la1":30.2991,"la2":30.254,"lo1":-89.0895,"lo2":-89.0444,"dy":0.0017,"dx":0.0017,"nx":28,"ny":28,"refTime":"2024-07-23T03:00:00:Z","depth":0,"parameterNumber":2,"parameterNumberName":"U-component_of_WINDS"},"data":[0,0,0,0,0,0,0,0,0,0,0,0,0,0,0,0,0,0,0,0,0,0,0,0,0,0,0,0,0,0,0,0,0,0,0,0,0,0,0,0,0,0,0,0,0,0,0,0,0,0,0,0,0,0,0,0,0,0,2.3577,2.3578,0,2.3696,2.3698,2.3699,2.3752,2.3752,2.3752,2.3752,2.3868,2.3871,2.3875,0,0,0,0,0,0,0,0,0,0,0,0,0,2.339,2.3393,2.3577,2.3579,2.358,2.3696,2.3698,2.3699,2.3752,2.3752,2.3752,2.3752,2.3867,2.3871,2.3875,0,0,0,0,0,0,0,0,0,0,0,0,0,2.3486,2.3394,2.3577,2.362,2.3626,2.3696,2.3698,2.37,2.3752,2.3752,2.3752,2.3751,2.3866,2.3871,2.3875,2.391,0,0,2.389,2.3892,0,0,0,0,0,0,0,0,2.3481,2.3493,2.3613,2.3618,2.3623,2.3709,2.3675,2.377,2.3752,2.3704,2.3752,2.3751,2.3815,2.3824,2.3847,2.3915,2.392,2.3891,2.3894,2.3896,2.3897,0,0,0,0,0,0,0,2.3474,2.3488,2.3624,2.3614,2.3621,2.3632,2.3646,2.3693,2.3759,2.3708,2.3712,2.3726,2.3818,2.3842,2.385,2.3922,2.3891,2.3895,2.3898,2.39,2.4024,2.4025,0,0,0,0,0,0,2.3461,2.3482,2.362,2.3628,2.355,2.3636,2.3651,2.3682,2.3759,2.377,2.3726,2.3728,2.3834,2.3844,2.3854,2.39,2.3896,2.39,2.3903,2.4024,2.4024,2.4025,0,0,0,0,0,0,2.3457,2.3473,2.3616,2.3556,2.3575,2.364,2.3674,2.3684,2.3708,2.3772,2.3784,2.3739,2.3834,2.3847,2.3896,2.3905,2.3902,2.3907,2.4024,2.4024,2.4025,2.3991,0,0,0,0,0,0,2.3451,2.3471,2.3486,2.3556,2.3578,2.3657,2.3674,2.3687,2.3717,2.3721,2.3787,2.3798,2.3835,2.3888,2.3901,2.3911,2.3911,2.4023,2.4024,2.4025,2.3992,2.399,2.3989,0,0,0,0,0,2.3444,2.347,2.3486,2.3502,2.3598,2.3657,2.367,2.3713,2.3718,2.3733,2.3774,2.3796,2.3902,2.3893,2.3907,2.3919,2.4023,2.4024,2.4024,2.3992,2.3991,2.3989,0,0,0,0,0,0,2.3397,2.348,2.3499,2.3549,2.3596,2.3666,2.3686,2.371,2.3755,2.3756,2.3807,2.3821,2.3865,2.3897,2.3886,2.3957,2.3964,2.3968,2.3935,2.3934,2.3933,2.3924,2.3915,0,0,0,0,0,2.3392,2.3435,2.3505,2.3542,2.3565,2.3621,2.3648,2.3678,2.3728,2.3747,2.3792,2.3838,2.3882,2.3909,2.3953,2.3996,2.4011,2.4012,2.401,2.4009,2.4012,2.4037,2.4038,2.4028,2.4028,2.4028,0,0,2.3383,2.3434,2.3457,2.3534,2.3574,2.3615,2.3637,2.368,2.3711,2.3753,2.3803,2.3837,2.3891,2.3938,2.396,2.3965,2.4018,2.401,2.4009,2.4012,2.4038,2.4039,2.404,2.4028,2.4028,2.4028,0,0,2.3388,2.3431,2.3467,2.3507,2.3568,2.3605,2.3614,2.3681,2.3706,2.3757,2.379,2.3826,2.39,2.3938,2.3967,2.3986,2.4009,2.3999,2.3993,2.4017,2.4018,2.4019,2.4026,2.4028,2.4001,2.4001,2.4001,0,2.3369,2.3434,2.3482,2.3524,2.3556,2.3598,2.3634,2.367,2.3741,2.3762,2.3767,2.3862,2.3901,2.3957,2.3962,2.3984,2.3995,2.3992,2.4014,2.4016,2.4017,2.4025,2.4027,2.4,2.4,2.4,2.4,0,2.3407,2.3452,2.3474,2.3544,2.3578,2.3617,2.3669,2.3698,2.3724,2.3761,2.3811,2.3861,2.3915,2.3931,2.3956,2.399,2.3992,2.4005,2.4013,2.4016,2.4024,2.4027,2.3998,2.3998,2.3999,2.3999,0,0,2.3386,2.3483,2.349,2.3522,2.3592,2.3627,2.3667,2.3722,2.3746,2.3793,2.3828,2.389,2.3903,2.3936,2.3966,2.3987,2.4,2.3998,2.4,2.3997,2.404,2.403,2.4033,2.4015,2.4015,2.4016,2.4036,0,2.34,2.3476,2.3521,2.3577,2.3619,2.366,2.3694,2.374,2.3775,2.3815,2.3852,2.3896,2.391,2.393,2.3953,2.3993,2.4009,2.3992,2.4046,2.4047,2.4032,2.4037,2.4026,2.4043,2.4039,2.404,2.404,0,2.3428,2.3477,2.3538,2.3605,2.3624,2.3655,2.3709,2.3746,2.3799,2.3823,2.386,2.389,2.3933,2.3937,2.3996,2.3984,2.4008,2.4031,2.4033,2.404,2.4044,2.4044,2.4049,2.4051,2.4045,2.4045,2.4045,0,2.3407,2.3487,2.3535,2.3561,2.364,2.366,2.3693,2.3746,2.3777,2.3824,2.3844,2.3894,2.3922,2.3959,2.4002,2.4002,2.4056,2.4065,2.4077,2.4076,2.4086,2.4085,2.4096,2.4102,2.4101,2.4101,2.4101,0,2.3419,2.3455,2.3527,2.3556,2.3597,2.3647,2.3686,2.3722,2.3769,2.3805,2.3842,2.3874,2.3929,2.3967,2.4001,2.4044,2.4056,2.4076,2.4084,2.4073,2.407,2.409,2.409,2.4102,2.4102,2.4102,2.4102,0,2.3402,2.3452,2.3506,2.3576,2.3595,2.3622,2.3682,2.3711,2.3748,2.3793,2.3806,2.3864,2.3911,2.3958,2.4021,2.4044,2.4087,2.4098,2.407,2.4074,2.4084,2.4082,2.4107,2.4113,2.4114,2.4114,2.4114,0,2.3407,2.3436,2.351,2.3537,2.357,2.3614,2.3646,2.3696,2.3727,2.379,2.3811,2.3862,2.3906,2.3979,2.4026,2.4075,2.4087,2.4093,2.4095,2.4082,2.4088,2.4086,2.4089,2.4091,2.4091,2.4091,2.4091,0,2.341,2.3433,2.3479,2.3533,2.3571,2.3616,2.3661,2.3681,2.3739,2.3773,2.3823,2.3857,2.3923,2.3972,2.4027,2.4059,2.4084,2.409,2.4095,2.4084,2.4066,2.4076,2.4067,2.4089,2.4089,2.4089,2.4089,2.4089,2.3404,2.3432,2.3489,2.3539,2.3579,2.3621,2.3652,2.3694,2.3737,2.3796,2.3822,2.3873,2.3924,2.4,2.4032,2.4071,2.4078,2.4085,2.4087,2.4088,2.4086,2.406,2.4081,2.4081,2.4081,2.4082,2.4082,0,2.341,2.3449,2.3494,2.3558,2.3597,2.3619,2.367,2.3701,2.3746,2.3793,2.3835,2.3893,2.3941,2.3992,2.4043,2.4065,2.4078,2.4077,2.4075,2.4083,2.4077,2.4068,2.4065,2.4065,2.4065,2.4065,2.4065,2.4065,2.3417,2.3466,2.3496,2.3565,2.3603,2.3654,2.3682,2.372,2.3758,2.3822,2.3863,2.3896,2.3945,2.4,2.4045,2.4058,2.4075,2.4071,2.4088,2.4082,2.4083,2.4084,2.4075,2.4074,2.4074,2.409,2.409,2.409]},{"header":{"parameterUnit":"m.s-1","parameterCategory":1,"la1":30.2991,"la2":30.254,"lo1":-89.0895,"lo2":-89.0444,"dy":0.0017,"dx":0.0017,"nx":28,"ny":28,"refTime":"2024-07-23T03:00:00:Z","depth":0,"parameterNumber":3,"parameterNumberName":"V-component_of_WINDS"},"data":[0,0,0,0,0,0,0,0,0,0,0,0,0,0,0,0,0,0,0,0,0,0,0,0,0,0,0,0,0,0,0,0,0,0,0,0,0,0,0,0,0,0,0,0,0,0,0,0,0,0,0,0,0,0,0,0,0,0,-0.6642,-0.664,0,-0.6407,-0.6405,-0.6402,-0.6321,-0.6322,-0.6323,-0.6324,-0.6073,-0.6066,-0.6058,0,0,0,0,0,0,0,0,0,0,0,0,0,-0.7014,-0.7007,-0.6643,-0.664,-0.6637,-0.6408,-0.6405,-0.6401,-0.6321,-0.6322,-0.6323,-0.6324,-0.6076,-0.6067,-0.6058,0,0,0,0,0,0,0,0,0,0,0,0,0,-0.6823,-0.7005,-0.6643,-0.6569,-0.656,-0.6409,-0.6404,-0.64,-0.6321,-0.6322,-0.6324,-0.6325,-0.6079,-0.6068,-0.6056,-0.5958,0,0,-0.6022,-0.6017,0,0,0,0,0,0,0,0,-0.6834,-0.6809,-0.6583,-0.6574,-0.6564,-0.6395,-0.6443,-0.6252,-0.632,-0.6411,-0.6324,-0.6326,-0.6178,-0.6159,-0.6111,-0.5946,-0.5935,-0.6021,-0.6014,-0.6009,-0.6006,0,0,0,0,0,0,0,-0.6847,-0.6819,-0.6549,-0.658,-0.6568,-0.6545,-0.652,-0.6407,-0.6289,-0.6404,-0.6397,-0.6371,-0.6173,-0.6123,-0.6105,-0.5931,-0.6021,-0.6011,-0.6004,-0.5999,-0.5673,-0.5671,0,0,0,0,0,0,-0.6874,-0.6831,-0.6557,-0.6542,-0.6705,-0.6538,-0.6509,-0.6448,-0.6291,-0.6268,-0.637,-0.6368,-0.6141,-0.6118,-0.6096,-0.5969,-0.6009,-0.5998,-0.5992,-0.5675,-0.5673,-0.5671,0,0,0,0,0,0,-0.6882,-0.685,-0.6566,-0.6685,-0.6647,-0.653,-0.6462,-0.6442,-0.6391,-0.6265,-0.6243,-0.634,-0.6142,-0.6112,-0.5993,-0.596,-0.5993,-0.5983,-0.5677,-0.5674,-0.5672,-0.5716,0,0,0,0,0,0,-0.6893,-0.6854,-0.6817,-0.6685,-0.6641,-0.647,-0.646,-0.6437,-0.6373,-0.6369,-0.6231,-0.621,-0.614,-0.6011,-0.5982,-0.5945,-0.5974,-0.568,-0.5676,-0.5673,-0.5717,-0.5716,-0.5714,0,0,0,0,0,-0.6907,-0.6836,-0.6815,-0.6783,-0.6593,-0.6468,-0.6443,-0.6367,-0.6371,-0.6331,-0.6251,-0.6214,-0.5969,-0.5999,-0.5966,-0.5925,-0.5681,-0.5677,-0.5673,-0.5718,-0.5716,-0.5714,0,0,0,0,0,0,-0.6964,-0.6818,-0.6793,-0.6678,-0.6587,-0.6455,-0.6403,-0.6367,-0.627,-0.6269,-0.6177,-0.6146,-0.6035,-0.5968,-0.6005,-0.5821,-0.5823,-0.5812,-0.5869,-0.5865,-0.5864,-0.5881,-0.5965,0,0,0,0,0,-0.6964,-0.6878,-0.6754,-0.6665,-0.6621,-0.652,-0.6463,-0.6413,-0.6314,-0.6273,-0.6184,-0.6086,-0.5986,-0.5923,-0.5824,-0.5709,-0.5676,-0.5664,-0.5662,-0.5662,-0.5652,-0.5585,-0.5578,-0.5657,-0.5657,-0.5657,0,0,-0.6961,-0.6871,-0.6821,-0.6674,-0.6597,-0.6508,-0.6488,-0.6394,-0.6326,-0.6258,-0.6141,-0.6073,-0.5957,-0.584,-0.5783,-0.578,-0.5624,-0.5656,-0.5657,-0.5647,-0.558,-0.5573,-0.5566,-0.5654,-0.5655,-0.5655,0,0,-0.691,-0.6835,-0.6752,-0.6677,-0.6563,-0.6497,-0.6478,-0.6352,-0.6304,-0.6187,-0.6135,-0.6051,-0.5883,-0.5802,-0.574,-0.5663,-0.5624,-0.5633,-0.5623,-0.5559,-0.5552,-0.5546,-0.5517,-0.5508,-0.5625,-0.5625,-0.5625,0,-0.692,-0.6787,-0.6713,-0.6623,-0.6558,-0.6498,-0.6412,-0.6342,-0.62,-0.6156,-0.6156,-0.5944,-0.5862,-0.5725,-0.5707,-0.5659,-0.5631,-0.5646,-0.556,-0.5553,-0.5546,-0.5517,-0.5507,-0.5627,-0.5626,-0.5626,-0.5626,0,-0.6804,-0.6712,-0.6659,-0.6528,-0.6458,-0.637,-0.6281,-0.6219,-0.6176,-0.611,-0.5991,-0.5891,-0.5772,-0.5736,-0.5691,-0.5592,-0.5594,-0.5579,-0.5578,-0.5542,-0.5513,-0.5501,-0.5629,-0.5628,-0.5628,-0.5627,0,0,-0.6778,-0.6611,-0.6592,-0.6532,-0.6404,-0.6329,-0.6239,-0.6126,-0.6074,-0.5979,-0.5899,-0.576,-0.5745,-0.5674,-0.5621,-0.5565,-0.5509,-0.5556,-0.5551,-0.5549,-0.5392,-0.5403,-0.5391,-0.5485,-0.5483,-0.5481,-0.5401,0,-0.6709,-0.6548,-0.648,-0.6349,-0.6262,-0.6205,-0.6126,-0.6037,-0.5974,-0.5889,-0.5817,-0.5719,-0.5709,-0.5665,-0.5608,-0.5528,-0.5476,-0.5533,-0.5406,-0.5403,-0.5434,-0.5376,-0.5387,-0.5316,-0.5389,-0.5388,-0.5386,0,-0.6606,-0.6515,-0.6376,-0.6259,-0.622,-0.6151,-0.6042,-0.5963,-0.5861,-0.5819,-0.5742,-0.5692,-0.5592,-0.5602,-0.5462,-0.5503,-0.5447,-0.5401,-0.5396,-0.5378,-0.539,-0.5355,-0.5292,-0.5281,-0.5368,-0.5369,-0.5371,0,-0.6599,-0.6442,-0.6338,-0.6289,-0.615,-0.6103,-0.6042,-0.5942,-0.5879,-0.5784,-0.5741,-0.5635,-0.5576,-0.5493,-0.5415,-0.543,-0.5283,-0.5285,-0.5242,-0.5244,-0.521,-0.5212,-0.5135,-0.518,-0.518,-0.518,-0.518,0,-0.6527,-0.6444,-0.6334,-0.627,-0.6175,-0.6098,-0.6004,-0.594,-0.5852,-0.5772,-0.5716,-0.5642,-0.5545,-0.5458,-0.5397,-0.529,-0.5264,-0.5224,-0.5208,-0.5228,-0.5232,-0.5187,-0.5189,-0.5177,-0.5178,-0.5178,-0.5179,0,-0.6502,-0.6425,-0.6308,-0.6189,-0.6157,-0.6092,-0.5988,-0.5922,-0.5858,-0.5758,-0.573,-0.5628,-0.5523,-0.5439,-0.53,-0.5259,-0.5146,-0.5129,-0.5181,-0.5172,-0.5133,-0.5137,-0.5021,-0.5001,-0.5062,-0.5062,-0.5062,0,-0.646,-0.6395,-0.627,-0.6215,-0.6156,-0.6067,-0.6004,-0.5926,-0.5861,-0.5742,-0.569,-0.5583,-0.5492,-0.5327,-0.5238,-0.5132,-0.511,-0.5078,-0.5094,-0.5115,-0.5107,-0.5111,-0.5103,-0.5075,-0.5074,-0.5074,-0.5074,0,-0.6393,-0.6359,-0.6271,-0.617,-0.6097,-0.6013,-0.5928,-0.5885,-0.5791,-0.5721,-0.5616,-0.5546,-0.5407,-0.53,-0.5186,-0.512,-0.508,-0.5071,-0.5054,-0.5071,-0.5104,-0.5084,-0.5174,-0.5072,-0.5072,-0.5073,-0.5073,-0.5073,-0.6355,-0.6295,-0.6199,-0.6103,-0.6032,-0.5954,-0.5887,-0.5816,-0.5727,-0.5611,-0.557,-0.5461,-0.536,-0.5203,-0.5138,-0.505,-0.5046,-0.5023,-0.5016,-0.5011,-0.5013,-0.5122,-0.5029,-0.5029,-0.5029,-0.5028,-0.5028,0,-0.6283,-0.6219,-0.6133,-0.6017,-0.5941,-0.5916,-0.5821,-0.5758,-0.5664,-0.5576,-0.5489,-0.5368,-0.5264,-0.5169,-0.5061,-0.5008,-0.4987,-0.4982,-0.4983,-0.4968,-0.5023,-0.5047,-0.5001,-0.5001,-0.5001,-0.5001,-0.5001,-0.5001,-0.6237,-0.6134,-0.6089,-0.5949,-0.5885,-0.578,-0.5728,-0.5655,-0.5584,-0.5452,-0.5368,-0.5308,-0.5216,-0.5101,-0.5004,-0.4979,-0.494,-0.4939,-0.4909,-0.4961,-0.4965,-0.4968,-0.499,-0.4932,-0.4932,-0.4861,-0.486,-0.486]}]]